SCP
0 0 0 0 0 0 0 0 0 0 0 -0 -0 -0 -0 -0 -0 -0 -0 -0 0 -0 0 -0 -0 -0 0 0 0 0 0 -0 0 -0 -0 -0 0 0 0 0 0 0 -0 -0 -0
0 0 0 0 0 0 0 0 0 0 0 0 -0 0 -0 -0 -0 0 -0 -0 -0 -0 -0 0 -0 -0 0 0 0 -0 0 -0 0 0 -0 -0 -0 -0 -0 0 -0 -0 -0 -0 -1
0 0 0 0 0 0 0 0 0 0 0 0 -0 0 0 0 -0 -0 -0 -0 -0 -0 0 -0 0 0 -0 0 -0 0 0 0 0 -0 -0 -0 0 0 -0 0 0 -0 -0 -0 -0
0 0 0 0 0 0 0 0 0 0 0 0 0 0 -0 -0 0 0 0 0 -0 -0 0 0 0 0 0 -0 0 0 0 0 0 -0 -0 0 0 0 0 0 -0 -0 -0 -0 0
0 0 0 0 0 0 0 0 0 0 0 0 0 0 0 0 0 0 -0 0 0 0 0 0 -0 0 0 0 -0 0 0 0 0 0 0 0 0 0 0 0 -0 -0 -0 -0 -0
0 0 0 0 0 0 0 0 0 0 0 0 0 -0 0 0 0 0 -0 0 0 0 -0 0 0 0 0 0 0 0 -0 0 0 0 0 0 0 0 0 -0 -0 -0 -0 0 0
0 0 0 0 0 0 0 0 0 0 0 0 0 0 0 -0 0 0 -0 0 0 0 0 -0 0 0 0 0 0 0 0 -0 0 0 -0 0 0 0 0 -0 -0 -0 -0 -0 0
0 0 0 0 0 0 0 0 0 0 0 0 0 0 -0 0 0 0 0 0 0 0 0 0 0 0 0 0 0 0 0 0 0 0 0 -0 0 -0 -0 -0 -0 -0 -0 0 0
0 0 0 0 0 0 0 0 0 0 0 0 0 0 0 0 0 0 0 0 0 0 -0 0 0 0 0 0 -0 0 0 -0 0 0 0 0 0 0 0 -0 -0 -0 0 0 0
0 0 0 0 0 0 0 0 0 0 0 0 0 0 -0 -0 0 0 0 0 0 0 0 0 0 0 0 0 0 -0 -0 -0 0 0 0 0 0 -0 0 0 0 -0 -0 -0 -0
0 0 0 0 0 0 0 0 0 0 0 -0 0 -0 -0 0 0 0 0 0 0 0 0 0 0 0 -0 0 0 0 0 0 0 0 0 0 0 -0 -0 0 0 0 -0 -0 -0
0 0 0 0 0 0 0 0 0 0 0 -0 -0 -0 -0 0 0 0 0 0 0 0 0 0 0 -0 0 0 0 -0 0 0 0 0 -0 0 0 0 -0 0 0 0 0 0 0
0 0 0 0 0 0 0 0 0 0 0 0 -0 0 0 0 0 0 0 0 0 0 0 0 0 0 0 0 0 0 0 0 0 0 -0 0 -0 0 0 -0 -0 0 0 0 -0
0 0 0 0 0 0 -0 0 0 0 0 0 0 0 0 0 0 0 -0 0 0 0 0 0 0 0 0 0 0 0 0 0 0 0 0 -0 0 0 -0 0 0 0 -0 -0 1
-0 0 0 0 0 0 0 0 0 0 0 0 0 -0 0 0 -0 0 0 0 0 0 0 0 -0 0 0 0 0 0 0 -0 -0 0 0 0 0 0 0 0 0 -0 0 -0 1
0 0 0 0 0 0 0 0 0 0 0 0 -0 -0 -0 0 0 0 0 -0 0 0 -0 0 -0 0 -0 0 0 -0 -0 0 0 -0 -0 0 0 0 0 0 -0 0 -0 -0 -0
0 0 0 0 0 0 0 0 0 0 -0 -0 0 -0 0 0 0 0 0 0 0 0 -0 -0 0 -0 0 0 -0 0 0 0 0 0 0 0 0 -0 -0 -0 -0 -0 -0 -0 0
-0 0 0 0 0 0 0 0 0 -0 0 -0 -0 -0 0 0 0 0 0 0 0 0 -0 -0 -0 0 0 0 -0 0 -0 0 0 -0 -0 -0 0 -0 0 0 0 0 0 -0 1
-0 0 0 -0 0 0 0 -0 0 0 -0 -0 -0 0 0 0 0 0 0 0 0 -0 0 0 0 -0 0 0 -0 -0 0 0 0 0 0 0 0 -0 0 0 -0 0 1 1 0
0 0 0 0 0 0 0 0 0 0 -0 -0 -0 0 0 -0 0 -0 0 -0 0 -0 0 0 0 0 0 0 0 0 -0 0 0 0 0 0 0 -0 0 0 -0 1 1 1 0
0 0 0 0 0 0 -0 0 0 0 0 0 0 0 -0 -0 0 -0 0 -0 -0 -0 0 0 0 0 0 0 0 0 0 0 -0 0 0 -0 -0 0 0 0 -0 0 0 0 0
0 0 0 -0 0 -0 -0 -0 0 0 0 0 0 0 0 -0 0 0 0 0 0 0 0 0 0 -0 0 0 0 0 0 0 0 0 0 0 -0 0 0 -0 0 1 1 0 0
0 0 0 -0 0 -0 0 -0 0 0 0 0 0 0 0 0 0 0 0 0 0 0 0 0 0 0 0 0 0 0 0 0 0 0 -0 0 0 0 0 0 0 0 1 1 1
0 0 0 0 0 0 0 0 0 0 0 0 0 0 0 0 0 0 0 0 0 0 0 0 0 0 0 -0 0 0 0 0 0 0 0 -0 -0 0 0 0 0 0 0 0 2
0 0 0 0 0 0 0 0 0 0 0 0 0 0 0 0 0 0 0 0 0 0 0 0 0 0 0 -0 0 0 0 0 0 0 0 -0 0 0 0 0 0 0 0 0 1
0 0 0 0 0 0 0 0 0 0 -0 0 0 0 0 0 0 0 0 0 0 0 0 0 0 0 0 0 0 -0 -0 0 0 -0 0 0 0 -0 -0 0 0 0 0 0 1
0 0 0 0 0 0 0 0 0 0 0 -0 0 0 0 0 0 0 -0 -0 -0 0 0 0 0 0 0 0 0 0 0 0 0 0 0 0 0 0 0 0 0 0 0 0 0
Wind_Speed_500mb
21 20 20 20 19 19 17 16 16 17 17 17 18 17 19 24 26 28 32 16 33 31 40 42 35 54 34 50 27 24 11 5 6 8 27 51 14 20 13 13 14 14 56 66 61
22 22 22 21 21 19 17 16 16 16 16 16 17 16 17 25 30 35 19 21 33 34 37 42 52 51 45 31 2 11 9 9 11 13 27 36 24 1 9 5 42 52 53 59 66
24 22 22 22 21 19 17 16 15 15 15 15 16 15 15 21 28 34 25 18 25 30 35 44 49 54 63 48 18 12 8 17 18 13 57 35 19 33 14 4 49 56 60 52 65
25 21 20 22 21 19 17 16 15 14 14 15 16 15 16 16 4 5 20 22 24 28 36 43 43 53 25 6 29 19 12 26 16 9 45 22 26 36 27 36 45 50 52 49 49
26 22 18 19 20 18 16 15 14 13 13 15 15 15 13 14 26 4 11 19 23 30 36 39 59 27 13 10 28 15 4 28 25 17 25 13 42 35 40 55 55 47 48 48 45
28 22 17 16 18 18 16 14 13 12 12 14 14 15 13 18 12 16 10 14 21 26 43 46 41 39 20 6 15 8 10 21 32 17 14 12 19 28 32 57 57 55 52 46 46
28 23 16 13 16 17 15 13 12 11 12 14 13 15 22 44 4 5 10 16 25 26 43 40 31 34 44 17 12 15 12 2 17 14 7 19 13 1 57 61 61 58 55 49 45
29 23 15 11 14 16 15 12 11 11 11 12 11 13 23 30 17 10 14 17 24 27 27 33 16 35 34 36 11 15 8 6 6 17 13 13 9 16 56 58 60 63 60 53 49
29 23 15 10 14 15 14 11 9 8 10 12 9 11 24 5 29 26 22 23 23 22 28 29 22 35 47 15 9 10 3 13 12 16 12 13 10 17 48 58 58 63 64 60 51
29 23 13 10 14 15 13 11 9 9 9 11 15 15 31 34 30 26 24 32 36 30 37 35 20 12 13 17 10 13 11 14 14 16 12 5 15 5 55 45 55 58 68 65 54
28 22 12 10 14 16 19 14 8 6 26 28 30 20 15 14 24 23 29 35 32 33 14 40 9 15 24 7 10 15 7 7 1 12 8 5 9 20 13 44 45 49 64 68 59
27 21 11 11 16 20 27 19 23 21 15 53 43 49 53 26 14 21 26 24 25 16 22 14 22 27 5 14 13 16 15 9 10 7 8 15 18 18 13 8 42 44 60 67 64
27 20 9 11 17 25 32 34 9 23 11 21 53 37 30 17 24 32 32 27 22 20 25 19 24 14 3 4 13 13 3 8 1 6 9 12 10 14 14 38 49 22 65 69 76
25 17 8 13 11 16 33 19 5 12 7 12 27 25 37 34 27 37 46 38 14 22 20 16 26 7 8 7 13 9 8 8 13 8 10 12 7 11 14 17 20 23 42 69 52
24 15 14 23 9 27 15 3 3 17 7 20 30 21 36 39 15 27 46 56 27 26 11 26 15 14 3 8 14 16 12 10 8 13 9 10 11 12 14 11 11 23 33 28 70
23 14 20 28 20 6 6 14 9 1 13 15 33 22 17 35 42 59 47 49 46 24 18 21 22 3 7 5 14 14 7 15 13 4 7 12 13 9 10 12 11 40 45 45 52
23 15 28 34 21 9 15 14 4 9 23 26 21 24 20 20 23 25 18 17 14 6 11 17 18 9 8 6 18 8 7 9 9 8 8 5 12 16 12 23 22 35 38 58 50
15 14 30 39 12 2 5 4 11 19 17 26 27 26 23 18 20 19 18 13 19 13 7 12 15 19 13 14 15 15 7 9 4 6 4 21 8 20 18 35 26 32 10 55 48
8 12 30 38 20 7 12 10 10 11 21 28 24 23 21 25 18 18 17 19 21 21 13 6 17 23 17 11 18 21 10 18 9 6 11 7 5 10 28 31 48 17 51 38 39
6 5 23 35 27 14 6 13 12 20 36 35 19 22 18 21 14 19 22 25 25 29 18 15 6 3 8 6 13 7 11 11 9 7 7 9 1 7 6 34 29 32 37 48 28
8 7 14 27 30 18 8 12 25 50 20 8 19 20 19 20 18 14 21 21 24 14 13 5 5 15 8 10 16 3 9 9 3 6 10 9 10 16 27 38 24 27 40 35 36
2 7 35 43 19 15 14 11 42 56 10 7 8 12 13 24 20 17 12 13 27 18 6 6 2 5 14 14 15 15 12 10 7 9 5 12 9 27 31 46 22 42 34 24 32
10 19 26 40 9 18 28 36 52 27 14 7 11 13 14 2 11 9 11 15 22 15 6 10 9 8 19 12 19 8 10 12 28 6 7 8 9 28 44 23 44 44 32 35 43
9 6 14 38 38 22 25 23 17 15 18 30 11 16 12 6 11 15 16 9 33 14 9 10 5 4 8 8 5 10 26 35 11 8 13 4 13 14 20 19 30 32 25 23 39
7 9 20 9 19 25 24 25 34 16 14 28 17 17 8 10 9 2 23 16 21 9 6 5 2 9 17 15 9 10 9 27 23 17 7 12 17 13 15 18 33 38 39 26 35
10 14 20 29 36 19 21 18 28 20 13 8 11 23 18 3 11 15 16 10 14 3 5 5 7 11 15 15 15 6 13 22 19 40 10 34 23 17 37 36 36 26 19 19 23
16 15 12 27 12 14 13 25 26 23 16 27 10 10 16 17 39 30 26 26 16 14 4 5 5 7 8 17 16 10 10 11 11 31 14 15 10 19 19 25 26 22 6 4 4
Wind_Direction_500mb
302 291 281 276 272 272 272 271 269 270 267 258 266 274 285 290 279 275 261 251 283 289 290 299 309 311 280 278 270 140 84 308 141 102 73 69 72 47 103 80 113 151 149 149 157
307 294 282 272 269 268 270 270 270 267 265 258 260 273 289 299 294 266 209 260 274 285 280 291 303 318 302 256 278 92 109 133 132 131 128 100 26 165 113 52 115 124 140 147 160
313 296 283 272 266 265 267 269 268 267 262 256 255 268 286 302 309 258 234 260 274 271 272 292 295 301 298 285 176 107 135 91 54 35 117 130 162 177 180 228 122 126 140 152 155
322 303 282 271 264 261 261 263 264 263 258 252 249 258 276 298 278 250 234 238 272 254 275 294 299 293 273 98 115 92 85 108 120 264 132 155 135 57 331 129 134 143 150 159 166
328 311 284 269 261 256 255 257 260 259 253 247 247 257 275 271 250 200 280 253 253 252 270 288 285 319 92 265 114 106 179 142 147 223 125 172 127 136 204 125 135 144 156 168 179
332 318 291 267 256 251 248 248 251 251 246 244 243 257 273 258 216 202 280 227 234 249 278 291 309 330 316 351 83 150 228 186 176 160 181 121 128 122 163 132 136 150 164 175 190
334 325 300 266 251 245 242 242 243 240 234 235 241 257 256 236 207 318 293 240 238 262 285 298 280 321 312 321 122 222 228 205 155 115 102 89 132 157 151 141 148 160 169 178 192
336 328 305 264 243 237 234 232 232 229 223 224 231 265 266 245 260 264 256 256 251 268 269 296 299 297 295 287 161 241 229 130 209 163 171 147 256 184 161 155 160 167 173 180 188
337 329 307 257 231 226 223 220 219 212 209 206 213 254 269 265 230 237 240 240 231 247 270 282 290 276 292 306 303 243 12 224 187 193 181 162 204 221 177 167 166 173 173 177 185
336 330 305 249 222 216 205 193 186 178 190 212 197 287 250 225 214 216 219 222 245 240 256 257 259 266 273 265 250 249 219 179 167 193 175 92 296 244 189 178 173 172 170 175 182
336 329 299 238 215 205 194 175 168 202 198 206 206 210 296 207 221 201 205 236 247 263 234 243 223 244 261 94 338 351 331 360 201 109 90 158 255 292 235 178 170 166 170 175 183
334 327 289 228 208 206 205 200 208 332 234 227 241 259 277 289 167 207 205 201 244 252 241 275 234 245 117 60 337 302 272 300 100 70 132 220 231 242 53 52 181 166 174 176 185
332 323 276 218 210 218 225 212 1 16 297 245 229 245 263 236 260 209 217 228 220 249 253 221 251 139 167 184 249 274 73 50 239 315 304 281 23 47 356 38 21 345 183 185 185
328 316 241 199 210 228 241 180 88 15 298 249 190 247 244 226 232 237 185 216 239 237 251 250 266 242 139 214 273 307 63 24 333 7 266 211 186 351 339 323 6 321 349 185 176
322 301 214 190 198 207 106 248 321 283 286 155 173 233 201 203 211 222 182 211 226 224 204 255 254 268 216 172 301 268 21 330 286 275 316 296 74 275 347 341 5 3 258 342 93
314 277 207 204 219 173 319 127 202 234 240 158 179 191 191 210 252 155 180 213 227 251 252 250 313 275 230 320 231 290 304 291 278 229 348 7 110 274 220 222 248 236 278 158 174
310 246 202 204 178 273 256 243 209 232 134 145 161 161 188 213 225 153 188 211 218 170 273 271 255 246 173 326 312 291 279 316 333 44 211 347 65 242 234 235 207 213 259 89 119
303 229 207 203 189 59 264 193 254 267 244 159 162 179 198 213 161 168 190 198 255 253 242 220 278 201 211 178 218 255 205 183 213 174 221 53 96 288 252 233 247 222 165 106 83
284 233 215 191 177 188 321 230 236 241 195 142 165 185 216 210 145 151 190 204 218 227 216 326 309 136 199 178 179 263 273 246 186 185 86 6 299 345 13 336 283 263 105 114 133
246 254 238 194 194 218 263 246 263 274 277 148 168 193 204 177 164 164 195 213 229 209 193 262 333 205 162 110 291 262 259 344 345 89 32 18 281 254 46 253 260 104 113 130 138
297 271 193 173 174 222 232 247 291 279 314 182 189 185 212 167 175 205 197 240 212 232 177 332 125 268 134 181 219 281 267 313 100 115 137 154 254 194 223 236 284 123 118 111 106
328 271 162 161 176 222 234 249 272 292 355 338 304 5 223 175 172 209 51 219 164 90 37 297 278 353 261 24 59 47 10 35 101 294 163 135 264 147 202 242 188 102 109 116 122
303 282 174 181 203 240 251 244 254 279 322 326 310 233 324 290 129 170 91 66 62 62 84 2 330 345 329 17 350 32 342 348 346 352 283 117 245 157 206 114 113 102 111 104 123
309 270 166 210 240 284 300 287 277 265 303 317 259 310 315 64 123 124 133 98 84 104 128 102 300 108 225 307 104 24 353 350 21 351 315 16 188 46 74 91 81 76 67 88 104
231 272 317 213 226 234 262 284 304 269 230 311 342 323 316 359 77 25 121 131 102 84 48 95 288 308 306 116 125 150 43 335 306 257 161 63 71 63 76 79 70 57 46 74 108
315 349 333 300 267 214 240 272 288 239 199 211 278 289 309 293 118 65 82 67 83 231 147 300 279 358 315 340 112 146 241 227 243 261 182 106 124 141 113 96 85 73 39 27 65
356 312 343 281 303 199 227 261 276 297 304 189 155 325 22 52 71 83 181 160 161 154 94 12 54 50 316 352 354 359 275 244 66 41 61 74 102 75 62 64 56 43 74 38 319
Wind_Speed_850mb
21 20 20 20 19 19 17 16 16 17 17 17 18 17 19 24 26 28 32 16 33 31 40 42 35 54 34 50 27 24 11 5 6 8 27 51 14 20 13 13 14 14 56 66 61
22 22 22 21 21 19 17 16 16 16 16 16 17 16 17 25 30 35 19 21 33 34 37 42 52 51 45 31 2 11 9 9 11 13 27 36 24 1 9 5 42 52 53 59 66
24 22 22 22 21 19 17 16 15 15 15 15 16 15 15 21 28 34 25 18 25 30 35 44 49 54 63 48 18 12 8 17 18 13 57 35 19 33 14 4 49 56 60 52 65
25 21 20 22 21 19 17 16 15 14 14 15 16 15 16 16 4 5 20 22 24 28 36 43 43 53 25 6 29 19 12 26 16 9 45 22 26 36 27 36 45 50 52 49 49
26 22 18 19 20 18 16 15 14 13 13 15 15 15 13 14 26 4 11 19 23 30 36 39 59 27 13 10 28 15 4 28 25 17 25 13 42 35 40 55 55 47 48 48 45
28 22 17 16 18 18 16 14 13 12 12 14 14 15 13 18 12 16 10 14 21 26 43 46 41 39 20 6 15 8 10 21 32 17 14 12 19 28 32 57 57 55 52 46 46
28 23 16 13 16 17 15 13 12 11 12 14 13 15 22 44 4 5 10 16 25 26 43 40 31 34 44 17 12 15 12 2 17 14 7 19 13 1 57 61 61 58 55 49 45
29 23 15 11 14 16 15 12 11 11 11 12 11 13 23 30 17 10 14 17 24 27 27 33 16 35 34 36 11 15 8 6 6 17 13 13 9 16 56 58 60 63 60 53 49
29 23 15 10 14 15 14 11 9 8 10 12 9 11 24 5 29 26 22 23 23 22 28 29 22 35 47 15 9 10 3 13 12 16 12 13 10 17 48 58 58 63 64 60 51
29 23 13 10 14 15 13 11 9 9 9 11 15 15 31 34 30 26 24 32 36 30 37 35 20 12 13 17 10 13 11 14 14 16 12 5 15 5 55 45 55 58 68 65 54
28 22 12 10 14 16 19 14 8 6 26 28 30 20 15 14 24 23 29 35 32 33 14 40 9 15 24 7 10 15 7 7 1 12 8 5 9 20 13 44 45 49 64 68 59
27 21 11 11 16 20 27 19 23 21 15 53 43 49 53 26 14 21 26 24 25 16 22 14 22 27 5 14 13 16 15 9 10 7 8 15 18 18 13 8 42 44 60 67 64
27 20 9 11 17 25 32 34 9 23 11 21 53 37 30 17 24 32 32 27 22 20 25 19 24 14 3 4 13 13 3 8 1 6 9 12 10 14 14 38 49 22 65 69 76
25 17 8 13 11 16 33 19 5 12 7 12 27 25 37 34 27 37 46 38 14 22 20 16 26 7 8 7 13 9 8 8 13 8 10 12 7 11 14 17 20 23 42 69 52
24 15 14 23 9 27 15 3 3 17 7 20 30 21 36 39 15 27 46 56 27 26 11 26 15 14 3 8 14 16 12 10 8 13 9 10 11 12 14 11 11 23 33 28 70
23 14 20 28 20 6 6 14 9 1 13 15 33 22 17 35 42 59 47 49 46 24 18 21 22 3 7 5 14 14 7 15 13 4 7 12 13 9 10 12 11 40 45 45 52
23 15 28 34 21 9 15 14 4 9 23 26 21 24 20 20 23 25 18 17 14 6 11 17 18 9 8 6 18 8 7 9 9 8 8 5 12 16 12 23 22 35 38 58 50
15 14 30 39 12 2 5 4 11 19 17 26 27 26 23 18 20 19 18 13 19 13 7 12 15 19 13 14 15 15 7 9 4 6 4 21 8 20 18 35 26 32 10 55 48
8 12 30 38 20 7 12 10 10 11 21 28 24 23 21 25 18 18 17 19 21 21 13 6 17 23 17 11 18 21 10 18 9 6 11 7 5 10 28 31 48 17 51 38 39
6 5 23 35 27 14 6 13 12 20 36 35 19 22 18 21 14 19 22 25 25 29 18 15 6 3 8 6 13 7 11 11 9 7 7 9 1 7 6 34 29 32 37 48 28
8 7 14 27 30 18 8 12 25 50 20 8 19 20 19 20 18 14 21 21 24 14 13 5 5 15 8 10 16 3 9 9 3 6 10 9 10 16 27 38 24 27 40 35 36
2 7 35 43 19 15 14 11 42 56 10 7 8 12 13 24 20 17 12 13 27 18 6 6 2 5 14 14 15 15 12 10 7 9 5 12 9 27 31 46 22 42 34 24 32
10 19 26 40 9 18 28 36 52 27 14 7 11 13 14 2 11 9 11 15 22 15 6 10 9 8 19 12 19 8 10 12 28 6 7 8 9 28 44 23 44 44 32 35 43
9 6 14 38 38 22 25 23 17 15 18 30 11 16 12 6 11 15 16 9 33 14 9 10 5 4 8 8 5 10 26 35 11 8 13 4 13 14 20 19 30 32 25 23 39
7 9 20 9 19 25 24 25 34 16 14 28 17 17 8 10 9 2 23 16 21 9 6 5 2 9 17 15 9 10 9 27 23 17 7 12 17 13 15 18 33 38 39 26 35
10 14 20 29 36 19 21 18 28 20 13 8 11 23 18 3 11 15 16 10 14 3 5 5 7 11 15 15 15 6 13 22 19 40 10 34 23 17 37 36 36 26 19 19 23
16 15 12 27 12 14 13 25 26 23 16 27 10 10 16 17 39 30 26 26 16 14 4 5 5 7 8 17 16 10 10 11 11 31 14 15 10 19 19 25 26 22 6 4 4
Wind_Direction_850mb
302 291 281 276 272 272 272 271 269 270 267 258 266 274 285 290 279 275 261 251 283 289 290 299 309 311 280 278 270 140 84 308 141 102 73 69 72 47 103 80 113 151 149 149 157
307 294 282 272 269 268 270 270 270 267 265 258 260 273 289 299 294 266 209 260 274 285 280 291 303 318 302 256 278 92 109 133 132 131 128 100 26 165 113 52 115 124 140 147 160
313 296 283 272 266 265 267 269 268 267 262 256 255 268 286 302 309 258 234 260 274 271 272 292 295 301 298 285 176 107 135 91 54 35 117 130 162 177 180 228 122 126 140 152 155
322 303 282 271 264 261 261 263 264 263 258 252 249 258 276 298 278 250 234 238 272 254 275 294 299 293 273 98 115 92 85 108 120 264 132 155 135 57 331 129 134 143 150 159 166
328 311 284 269 261 256 255 257 260 259 253 247 247 257 275 271 250 200 280 253 253 252 270 288 285 319 92 265 114 106 179 142 147 223 125 172 127 136 204 125 135 144 156 168 179
332 318 291 267 256 251 248 248 251 251 246 244 243 257 273 258 216 202 280 227 234 249 278 291 309 330 316 351 83 150 228 186 176 160 181 121 128 122 163 132 136 150 164 175 190
334 325 300 266 251 245 242 242 243 240 234 235 241 257 256 236 207 318 293 240 238 262 285 298 280 321 312 321 122 222 228 205 155 115 102 89 132 157 151 141 148 160 169 178 192
336 328 305 264 243 237 234 232 232 229 223 224 231 265 266 245 260 264 256 256 251 268 269 296 299 297 295 287 161 241 229 130 209 163 171 147 256 184 161 155 160 167 173 180 188
337 329 307 257 231 226 223 220 219 212 209 206 213 254 269 265 230 237 240 240 231 247 270 282 290 276 292 306 303 243 12 224 187 193 181 162 204 221 177 167 166 173 173 177 185
336 330 305 249 222 216 205 193 186 178 190 212 197 287 250 225 214 216 219 222 245 240 256 257 259 266 273 265 250 249 219 179 167 193 175 92 296 244 189 178 173 172 170 175 182
336 329 299 238 215 205 194 175 168 202 198 206 206 210 296 207 221 201 205 236 247 263 234 243 223 244 261 94 338 351 331 360 201 109 90 158 255 292 235 178 170 166 170 175 183
334 327 289 228 208 206 205 200 208 332 234 227 241 259 277 289 167 207 205 201 244 252 241 275 234 245 117 60 337 302 272 300 100 70 132 220 231 242 53 52 181 166 174 176 185
332 323 276 218 210 218 225 212 1 16 297 245 229 245 263 236 260 209 217 228 220 249 253 221 251 139 167 184 249 274 73 50 239 315 304 281 23 47 356 38 21 345 183 185 185
328 316 241 199 210 228 241 180 88 15 298 249 190 247 244 226 232 237 185 216 239 237 251 250 266 242 139 214 273 307 63 24 333 7 266 211 186 351 339 323 6 321 349 185 176
322 301 214 190 198 207 106 248 321 283 286 155 173 233 201 203 211 222 182 211 226 224 204 255 254 268 216 172 301 268 21 330 286 275 316 296 74 275 347 341 5 3 258 342 93
314 277 207 204 219 173 319 127 202 234 240 158 179 191 191 210 252 155 180 213 227 251 252 250 313 275 230 320 231 290 304 291 278 229 348 7 110 274 220 222 248 236 278 158 174
310 246 202 204 178 273 256 243 209 232 134 145 161 161 188 213 225 153 188 211 218 170 273 271 255 246 173 326 312 291 279 316 333 44 211 347 65 242 234 235 207 213 259 89 119
303 229 207 203 189 59 264 193 254 267 244 159 162 179 198 213 161 168 190 198 255 253 242 220 278 201 211 178 218 255 205 183 213 174 221 53 96 288 252 233 247 222 165 106 83
284 233 215 191 177 188 321 230 236 241 195 142 165 185 216 210 145 151 190 204 218 227 216 326 309 136 199 178 179 263 273 246 186 185 86 6 299 345 13 336 283 263 105 114 133
246 254 238 194 194 218 263 246 263 274 277 148 168 193 204 177 164 164 195 213 229 209 193 262 333 205 162 110 291 262 259 344 345 89 32 18 281 254 46 253 260 104 113 130 138
297 271 193 173 174 222 232 247 291 279 314 182 189 185 212 167 175 205 197 240 212 232 177 332 125 268 134 181 219 281 267 313 100 115 137 154 254 194 223 236 284 123 118 111 106
328 271 162 161 176 222 234 249 272 292 355 338 304 5 223 175 172 209 51 219 164 90 37 297 278 353 261 24 59 47 10 35 101 294 163 135 264 147 202 242 188 102 109 116 122
303 282 174 181 203 240 251 244 254 279 322 326 310 233 324 290 129 170 91 66 62 62 84 2 330 345 329 17 350 32 342 348 346 352 283 117 245 157 206 114 113 102 111 104 123
309 270 166 210 240 284 300 287 277 265 303 317 259 310 315 64 123 124 133 98 84 104 128 102 300 108 225 307 104 24 353 350 21 351 315 16 188 46 74 91 81 76 67 88 104
231 272 317 213 226 234 262 284 304 269 230 311 342 323 316 359 77 25 121 131 102 84 48 95 288 308 306 116 125 150 43 335 306 257 161 63 71 63 76 79 70 57 46 74 108
315 349 333 300 267 214 240 272 288 239 199 211 278 289 309 293 118 65 82 67 83 231 147 300 279 358 315 340 112 146 241 227 243 261 182 106 124 141 113 96 85 73 39 27 65
356 312 343 281 303 199 227 261 276 297 304 189 155 325 22 52 71 83 181 160 161 154 94 12 54 50 316 352 354 359 275 244 66 41 61 74 102 75 62 64 56 43 74 38 319